Audubon, IA

1:27 AM CDT on August 19, 2017 (GMT -0500)
Audubon County

Weather History for KADU - January, 2014

Change the Weather History Date:

Thursday, January 16, 2014

  Actual Average Record
Temperature  
Mean Temperature 26 °F -  
Max Temperature 42 °F 30 °F 60 °F (1990)
Min Temperature 10 °F 9 °F -22 °F (1977)
Degree Days  
Heating Degree Days 39    
Moisture  
Dew Point 16 °F    
Average Humidity 62    
Maximum Humidity 80    
Minimum Humidity 45    
Precipitation  
Precipitation 0.00 in - - ()
Sea Level Pressure  
Sea Level Pressure 29.76 in    
Wind  
Wind Speed 14 mph (NW)    
Max Wind Speed 38 mph    
Max Gust Speed 46 mph    
Visibility 8 miles    
Events Snow    
Averages and records for this station are not official NWS values.
T = Trace of Precipitation, MM = Missing Value Source: NWS Daily Summary

Daily Weather History Graph

Daily Weather History Graph

Search for Another Location

Airport or City:

Trip Planner

Search our weather history database for the weather conditions in past years. The results will help you decide how hot, cold, wet, or windy it might be!

Date:

Astronomy

Jan. 16, 2014 Rise Set
Actual Time 7:43 AM CST 5:15 PM CST
Civil Twilight 7:13 AM CST 5:46 PM CST
Nautical Twilight 6:39 AM CST 6:20 PM CST
Astronomical Twilight 6:05 AM CST 6:53 PM CST
Moon 6:09 PM CST (1/16) 7:36 AM CST (1/16)
Length of Visible Light 10h 32m
Length of Day
9h 31m
Full, 100% of the Moon is Illuminated
Jan 16
Full
Jan 23
Last Quarter
Jan 30
New
Feb 6
First Quarter
Feb 14
Full

Hourly Weather History & Observations

Time (CST) Temp. Windchill Dew Point Humidity Pressure Visibility Wind Dir Wind Speed Gust Speed Precip Events Conditions
12:15 AM 32.0 °F 24.8 °F 21.2 °F 64% 29.69 in 10.0 mi WSW 8.1 mph - N/A   Scattered Clouds
12:35 AM 35.6 °F 27.1 °F 24.8 °F 65% 29.63 in 10.0 mi WSW 12.7 mph 21.9 mph N/A   Scattered Clouds
12:55 AM 35.6 °F 28.6 °F 23.0 °F 60% 29.64 in 10.0 mi WSW 9.2 mph 16.1 mph N/A   Clear
1:15 AM 37.4 °F 31.4 °F 24.8 °F 60% 29.64 in 10.0 mi West 8.1 mph 16.1 mph N/A   Clear
1:35 AM 39.2 °F 34.2 °F 24.8 °F 56% 29.65 in 10.0 mi West 6.9 mph - N/A   Clear
1:55 AM 42.8 °F 36.6 °F 23.0 °F 46% 29.64 in 10.0 mi West 11.5 mph 16.1 mph N/A   Clear
2:15 AM 41.0 °F 34.7 °F 23.0 °F 49% 29.65 in 10.0 mi West 10.4 mph - N/A   Scattered Clouds
2:35 AM 42.8 °F 36.6 °F 23.0 °F 46% 29.64 in 10.0 mi West 11.5 mph 19.6 mph N/A   Scattered Clouds
2:55 AM 39.2 °F 32.5 °F 21.2 °F 49% 29.65 in 10.0 mi WNW 10.4 mph - N/A   Clear
3:15 AM 39.2 °F 33.0 °F 21.2 °F 49% 29.66 in 10.0 mi WNW 9.2 mph 18.4 mph N/A   Clear
3:35 AM 39.2 °F 33.0 °F 21.2 °F 49% 29.65 in 10.0 mi WNW 9.2 mph 16.1 mph N/A   Clear
3:55 AM 39.2 °F 32.0 °F 21.2 °F 49% 29.65 in 10.0 mi WNW 11.5 mph 17.3 mph N/A   Clear
4:15 AM 37.4 °F 30.3 °F 19.4 °F 48% 29.64 in 10.0 mi West 10.4 mph 16.1 mph N/A   Clear
4:35 AM 37.4 °F 29.3 °F 19.4 °F 48% 29.64 in 10.0 mi WNW 12.7 mph 23.0 mph N/A   Clear
4:55 AM 37.4 °F 29.8 °F 19.4 °F 48% 29.64 in 10.0 mi WNW 11.5 mph 20.7 mph N/A   Clear
5:15 AM 37.4 °F 28.5 °F 19.4 °F 48% 29.64 in 10.0 mi WNW 15.0 mph 24.2 mph N/A   Clear
5:35 AM 37.4 °F 28.9 °F 19.4 °F 48% 29.64 in 10.0 mi WNW 13.8 mph 24.2 mph N/A   Clear
5:55 AM 39.2 °F 31.6 °F 21.2 °F 49% 29.64 in 10.0 mi WNW 12.7 mph 21.9 mph N/A   Scattered Clouds
6:15 AM 39.2 °F 30.5 °F 21.2 °F 49% 29.64 in 10.0 mi WNW 16.1 mph 26.5 mph N/A   Overcast
6:35 AM 39.2 °F 30.2 °F 23.0 °F 52% 29.65 in 10.0 mi WNW 17.3 mph 32.2 mph N/A   Overcast
6:55 AM 37.4 °F 27.2 °F 24.8 °F 60% 29.66 in 10.0 mi WNW 19.6 mph 28.8 mph N/A   Mostly Cloudy
7:15 AM 37.4 °F 28.2 °F 24.8 °F 60% 29.66 in 10.0 mi WNW 16.1 mph 25.3 mph N/A   Scattered Clouds
7:35 AM 37.4 °F 27.5 °F 26.6 °F 65% 29.66 in 10.0 mi WNW 18.4 mph 27.6 mph N/A   Mostly Cloudy
7:55 AM 37.4 °F 25.9 °F 17.6 °F 45% 29.68 in 10.0 mi NW 25.3 mph 36.8 mph N/A   Mostly Cloudy
8:15 AM 37.4 °F 27.2 °F 17.6 °F 45% 29.69 in 10.0 mi NW 19.6 mph 31.1 mph N/A   Mostly Cloudy
8:35 AM 37.4 °F 26.1 °F 17.6 °F 45% 29.69 in 10.0 mi NW 24.2 mph 33.4 mph N/A   Mostly Cloudy
8:55 AM 35.6 °F 23.2 °F 17.6 °F 48% 29.71 in 10.0 mi NW 26.5 mph 40.3 mph N/A   Mostly Cloudy
9:15 AM 33.8 °F 22.8 °F 19.4 °F 56% 29.73 in 10.0 mi NW 18.4 mph 36.8 mph N/A Snow Light Snow
9:35 AM 33.8 °F 23.5 °F 21.2 °F 60% 29.73 in 7.0 mi NW 16.1 mph 31.1 mph N/A Snow Light Snow
9:55 AM 33.8 °F 24.3 °F 24.8 °F 70% 29.73 in 7.0 mi WNW 13.8 mph 29.9 mph N/A Snow Light Snow
10:15 AM 33.8 °F 24.3 °F 24.8 °F 70% 29.74 in 3.0 mi NW 13.8 mph 25.3 mph N/A Snow Light Snow
10:35 AM 32.0 °F 23.6 °F 24.8 °F 75% 29.74 in 1.5 mi NW 10.4 mph 18.4 mph N/A Snow Light Snow
10:55 AM 32.0 °F 23.0 °F 24.8 °F 75% 29.74 in 1.2 mi WNW 11.5 mph 16.1 mph N/A Snow Light Snow
11:15 AM 32.0 °F 24.2 °F 26.6 °F 80% 29.73 in 7.0 mi NW 9.2 mph 16.1 mph N/A Snow Light Snow
11:35 AM 32.0 °F 24.8 °F 26.6 °F 80% 29.72 in 3.0 mi NW 8.1 mph 17.3 mph N/A Snow Light Snow
11:55 AM 33.8 °F 26.4 °F 26.6 °F 75% 29.71 in 10.0 mi WNW 9.2 mph - N/A   Scattered Clouds
12:15 PM 35.6 °F 29.2 °F 28.4 °F 75% 29.70 in 10.0 mi WNW 8.1 mph 17.3 mph N/A   Scattered Clouds
12:35 PM 35.6 °F 26.6 °F 26.6 °F 70% 29.69 in 10.0 mi WNW 13.8 mph 19.6 mph N/A   Scattered Clouds
12:55 PM 35.6 °F 26.6 °F 26.6 °F 70% 29.69 in 7.0 mi WNW 13.8 mph 20.7 mph N/A Snow Light Snow
1:15 PM 35.6 °F 27.5 °F 24.8 °F 65% 29.68 in 10.0 mi WNW 11.5 mph 23.0 mph N/A   Mostly Cloudy
1:20 PM 35.6 °F 25.5 °F 24.8 °F 65% 29.68 in 7.0 mi WNW 17.3 mph 27.6 mph N/A Snow Light Snow
1:35 PM 35.6 °F 25.5 °F 24.8 °F 65% 29.68 in 10.0 mi WNW 17.3 mph 29.9 mph N/A   Scattered Clouds
1:55 PM 37.4 °F 28.2 °F 24.8 °F 60% 29.67 in 10.0 mi WNW 16.1 mph 23.0 mph N/A   Scattered Clouds
2:15 PM 37.4 °F 29.3 °F 24.8 °F 60% 29.65 in 10.0 mi West 12.7 mph 21.9 mph N/A   Scattered Clouds
2:35 PM 33.8 °F 21.6 °F 24.8 °F 70% 29.70 in 0.8 mi NW 23.0 mph 35.7 mph N/A Snow Light Snow
2:55 PM 30.2 °F 17.8 °F 24.8 °F 80% 29.70 in 10.0 mi NW 19.6 mph 34.5 mph N/A   Mostly Cloudy
3:15 PM 30.2 °F 16.8 °F 21.2 °F 69% 29.74 in 5.0 mi NW 23.0 mph 36.8 mph N/A Snow Light Snow
3:35 PM 24.8 °F 6.2 °F 17.6 °F 74% 29.78 in 1.8 mi NNW 38.0 mph 46.0 mph N/A Snow Light Snow
3:55 PM 19.4 °F 2.5 °F 12.2 °F 74% 29.81 in 0.5 mi NNW 23.0 mph 40.3 mph N/A Snow Snow
4:15 PM 17.6 °F -1.9 °F 10.4 °F 73% 29.84 in 2.5 mi NNW 29.9 mph 39.1 mph N/A Snow Light Snow
4:35 PM 15.8 °F -1.5 °F 8.6 °F 73% 29.85 in 4.0 mi NW 20.7 mph 38.0 mph N/A Snow Light Snow
5:35 PM 12.2 °F -5.8 °F 1.4 °F 62% 29.92 in 10.0 mi NW 19.6 mph 32.2 mph N/A   Unknown
5:55 PM 12.2 °F -4.8 °F 1.4 °F 62% 29.92 in 10.0 mi NNW 17.3 mph 32.2 mph N/A   Mostly Cloudy
6:15 PM 10.4 °F -8.2 °F -0.4 °F 62% 29.92 in 10.0 mi NNW 19.6 mph 28.8 mph N/A   Mostly Cloudy
6:35 PM 10.4 °F -7.7 °F 1.4 °F 67% 29.92 in 10.0 mi NW 18.4 mph 24.2 mph N/A   Mostly Cloudy
6:55 PM 10.4 °F -7.7 °F 3.2 °F 73% 29.92 in 2.0 mi NNW 18.4 mph 26.5 mph N/A Snow Light Snow
7:15 PM 10.4 °F -8.6 °F 1.4 °F 67% 29.94 in 4.0 mi NW 20.7 mph 29.9 mph N/A Snow Light Snow
7:35 PM 10.4 °F -9.5 °F 1.4 °F 67% 29.94 in 3.0 mi NW 23.0 mph 33.4 mph N/A Snow Light Snow
7:55 PM 10.4 °F -9.1 °F 1.4 °F 67% 29.94 in 4.0 mi NNW 21.9 mph 35.7 mph N/A Snow Light Snow
8:15 PM 10.4 °F -7.2 °F 1.4 °F 67% 29.95 in 10.0 mi NW 17.3 mph 29.9 mph N/A   Mostly Cloudy
8:35 PM 10.4 °F -7.2 °F 1.4 °F 67% 29.95 in 7.0 mi NW 17.3 mph 25.3 mph N/A   Mostly Cloudy
8:55 PM 12.2 °F -7.1 °F 3.2 °F 67% 29.96 in 4.0 mi NW 23.0 mph 31.1 mph N/A Snow Light Snow
9:15 PM 12.2 °F -6.7 °F 1.4 °F 62% 29.96 in 10.0 mi NNW 21.9 mph 32.2 mph N/A   Scattered Clouds
9:35 PM 12.2 °F -4.8 °F 1.4 °F 62% 29.97 in 10.0 mi NW 17.3 mph 25.3 mph N/A   Mostly Cloudy
9:55 PM 12.2 °F -4.3 °F 3.2 °F 67% 29.97 in 4.0 mi NW 16.1 mph 25.3 mph N/A Snow Light Snow
10:15 PM 12.2 °F -6.3 °F 3.2 °F 67% 29.97 in 7.0 mi NW 20.7 mph 29.9 mph N/A   Mostly Cloudy
10:35 PM 12.2 °F -5.3 °F 3.2 °F 67% 29.97 in 5.0 mi NW 18.4 mph 25.3 mph N/A   Haze
10:55 PM 12.2 °F -3.1 °F 3.2 °F 67% 29.97 in 3.0 mi NW 13.8 mph 23.0 mph N/A Snow Light Snow
11:15 PM 12.2 °F -6.3 °F 5.0 °F 73% 29.97 in 10.0 mi NNW 20.7 mph 34.5 mph N/A   Scattered Clouds
11:35 PM 12.2 °F -3.7 °F 3.2 °F 67% 29.97 in 7.0 mi NW 15.0 mph 25.3 mph N/A   Mostly Cloudy
11:55 PM 12.2 °F -4.3 °F 3.2 °F 67% 29.98 in 5.0 mi NNW 16.1 mph 27.6 mph N/A Snow Light Snow